User: anonymous
Location: Caltech
(34.1382°N, 118.1253°W)
Time: 06:01:00
(UTC-07:00)
Language:

Iridium 95 - Orbit

View from above orbital plane
View from above orbital plane
View from above satellite
View from above satellite

Ground track
Ground track

The orbit data is extracted from the following two-line orbital elements,

1 27375U 02005D   14190.45771734  .00000116  00000-0  34213-4 0  3533
2 27375 086.3967 016.2775 0002137 103.0155 257.1280 14.34217540657016
Epoch (UTC): 09 July 2014 10:59:06
Eccentricity: 0.0002137
inclination: 86.3967°
perigee height: 776 km
apogee height: 779 km
right ascension of ascending node: 16.2775°
argument of perigee: 103.0155°
revolutions per day: 14.34217540
mean anomaly at epoch: 257.1280°
orbit number at epoch: 65701

The dashed part of the orbit path shows where the satellite is in the earth's shadow,  

DLR